1494511200.21,26073,14.81,73086.8,7.73,-39.47,-38.67,0,*7D
1494511201.46,26074,14.81,73086.8,7.75,-37.21,-36.37,0,*79
1494511202.65,26075,14.81,73088.8,7.75,-38.05,-37.33,0,*74
1494511203.87,26076,14.81,73088.8,7.75,-36.37,-35.71,0,*7C
1494511205.09,26077,14.88,73088.3,7.79,-35.13,-34.19,0,*7B
1494511206.34,26078,14.81,73090.8,7.79,-36.49,-35.83,0,*7A
1494511207.58,26079,14.88,73092.5,7.81,-39.59,-39.09,0,*7C
1494511208.77,26080,14.81,73094.8,7.79,-40.53,-40.15,0,*7A
1494511210.03,26081,14.81,73088.3,7.77,-40.91,-40.41,0,*7A
1494511211.26,26082,14.88,73092.8,7.75,-40.91,-40.41,0,*7B
1494511212.5,26083,14.81,73090.8,7.73,-40.09,-39.47,0,*75
1494511213.73,26084,14.88,73094.8,7.73,-39.65,-38.85,0,*79
1494511214.98,26085,14.88,73094.8,7.73,-37.27,-36.79,0,*7D
1494511216.22,26086,14.88,73096.8,7.73,-37.39,-36.73,0,*7B
1494511217.43,26087,14.88,73096.0,7.75,-36.55,-35.89,0,*71
1494511218.68,26088,14.81,73092.0,7.75,-37.21,-36.37,0,*7A
1494511219.94,26089,14.81,73092.8,7.77,-36.31,-35.53,0,*78
1494511221.16,26090,14.88,73094.0,7.79,-37.75,-37.21,0,*78
1494511222.38,26091,14.81,73090.0,7.79,-39.29,-38.61,0,*75
1494511223.64,26092,14.88,73092.5,7.77,-39.59,-38.97,0,*76
1494511224.89,26093,14.88,73082.8,7.73,-42.51,-42.05,0,*71
1494511226.09,26094,14.88,73086.3,7.67,-42.25,-41.87,0,*79
1494511227.29,26095,14.88,73080.5,7.67,-41.49,-41.03,0,*7D
1494511228.49,26096,14.88,73086.8,7.63,-42.51,-42.13,0,*72
1494511229.73,26097,14.88,73088.3,7.63,-40.59,-39.97,0,*79
1494511230.96,26098,14.81,73084.8,7.61,-40.47,-40.03,0,*78
1494511232.19,26099,14.81,73086.3,7.59,-41.03,-40.59,0,*7C
1494511233.44,26100,14.88,73084.3,7.57,-40.73,-40.09,0,*70
1494511234.71,26101,14.88,73084.5,7.57,-40.85,-40.29,0,*7A
1494511235.91,26102,14.88,73092.3,7.55,-39.91,-39.35,0,*73
1494511237.16,26103,14.81,73094.0,7.55,-39.23,-39.03,0,*7E
1494511238.42,26104,14.81,73088.3,7.53,-40.41,-39.91,0,*7E
1494511239.65,26105,14.88,73086.0,7.51,-39.97,-39.09,0,*79
1494511240.85,26106,14.88,73088.3,7.51,-38.61,-37.75,0,*77
1494511242.1,26107,14.88,73086.5,7.51,-37.69,-37.09,0,*7A
1494511243.36,26108,14.88,73084.8,7.53,-36.85,-36.13,0,*7E
1494511244.63,26109,14.88,73084.8,7.53,-37.39,-36.55,0,*7B
1494511245.88,26110,14.81,73090.3,7.53,-37.57,-36.91,0,*73
1494511247.08,26111,14.81,73086.5,7.55,-38.17,-37.45,0,*77
1494511248.28,26112,14.88,73084.8,7.55,-38.73,-38.17,0,*7E
1494511249.51,26113,14.88,73084.8,7.55,-38.79,-38.17,0,*75
1494511250.76,26114,14.88,73090.5,7.57,-37.63,-36.97,0,*72
1494511252.04,26115,14.88,73090.8,7.57,-36.49,-35.53,0,*71
1494511253.25,26116,14.81,73086.5,7.59,-36.43,-35.77,0,*70
1494511254.48,26117,14.88,73092.5,7.59,-38.85,-38.29,0,*73
1494511255.73,26118,14.88,73090.5,7.59,-39.23,-38.67,0,*7B
1494511256.94,26119,14.81,73086.8,7.59,-37.87,-37.27,0,*71
1494511258.14,26120,14.88,73086.0,7.59,-38.61,-37.87,0,*76
1494511259.37,26121,14.88,73090.0,7.59,-38.29,-37.57,0,*76
1494511260.58,26122,14.88,73090.8,7.55,-38.17,-37.57,0,*74
1494511261.8,26123,14.88,73084.8,7.57,-37.57,-37.03,0,*7D
1494511263.01,26124,14.88,73084.8,7.59,-36.01,-35.29,0,*7C
1494511264.24,26125,14.88,73084.8,7.59,-36.43,-35.83,0,*7B
1494511265.51,26126,14.88,73088.3,7.61,-35.23,-34.35,0,*7A
1494511266.75,26127,14.88,73088.5,7.63,-36.13,-35.23,0,*7F
1494511268.0,26128,14.88,73088.3,7.65,-35.23,-34.47,0,*75
1494511269.28,26129,14.88,73090.0,7.65,-36.91,-36.37,0,*7B
1494511270.5,26130,14.88,73090.3,7.67,-36.49,-35.71,0,*75
1494511271.7,26131,14.88,73090.3,7.67,-37.75,-37.15,0,*7A
1494511272.9,26132,14.88,73094.5,7.67,-37.75,-37.15,0,*79
1494511274.14,26133,14.88,73092.0,7.71,-38.23,-37.69,0,*78
1494511275.36,26134,14.88,73092.3,7.67,-39.29,-38.55,0,*73
1494511276.61,26135,14.88,73098.3,7.65,-39.79,-39.35,0,*72
1494511277.87,26136,14.88,73096.8,7.63,-39.71,-39.15,0,*7D
1494511279.1,26137,14.88,73096.0,7.63,-39.15,-38.43,0,*7C
1494511280.3,26138,14.88,73096.0,7.63,-39.91,-39.35,0,*7F
1494511281.53,26139,14.88,73092.0,7.59,-39.79,-39.09,0,*7E
1494511282.79,26140,14.88,73088.5,7.59,-40.97,-40.41,0,*7C
1494511284.01,26141,14.88,73094.3,7.57,-40.35,-39.91,0,*78
1494511285.26,26142,14.88,73094.3,7.55,-41.35,-40.79,0,*70
1494511286.52,26143,14.88,73092.0,7.53,-40.53,-40.09,0,*71
1494511287.75,26144,14.88,73088.8,7.51,-41.41,-40.97,0,*71
1494511289.02,26145,14.88,73090.0,7.49,-40.21,-39.71,0,*78
1494511290.27,26146,14.88,73084.0,7.47,-40.73,-40.09,0,*73
1494511291.49,26147,14.88,73084.5,7.47,-41.11,-40.35,0,*78
1494511292.73,26148,14.81,73080.8,7.47,-42.45,-41.99,0,*72
1494511293.96,26149,14.88,73084.3,7.41,-41.99,-41.55,0,*77
1494511295.19,26150,14.88,73084.8,7.37,-41.41,-40.85,0,*77
1494511296.42,26151,14.88,73088.0,7.37,-42.83,-41.87,0,*78
1494511297.66,26152,14.88,73090.3,7.33,-42.19,-41.73,0,*77
1494511298.86,26153,14.88,73088.0,7.29,-42.37,-41.73,0,*71
1494511300.12,26154,14.88,73084.0,7.29,-41.35,-40.79,0,*7C
1494511301.36,26155,14.88,73088.0,7.27,-40.73,-40.21,0,*7D
1494511302.59,26156,14.88,73086.3,7.25,-39.91,-39.23,0,*72
1494511303.87,26157,14.88,73082.5,7.27,-39.71,-39.41,0,*7B
1494511305.09,26158,14.88,73080.5,7.25,-39.85,-39.23,0,*79
1494511306.32,26159,14.88,73080.0,7.25,-40.91,-40.41,0,*79
1494511307.52,26160,14.88,73080.5,7.21,-40.73,-40.15,0,*7A
1494511308.75,26161,14.88,73086.5,7.19,-42.13,-41.73,0,*75
1494511310.0,26162,14.88,73086.5,7.19,-42.13,-41.81,0,*7B
1494511311.28,26163,14.88,73088.5,7.15,-42.69,-42.45,0,*70
1494511312.55,26164,14.88,73086.0,7.11,-42.05,-41.55,0,*7B
1494511313.8,26165,14.88,73088.5,7.11,-41.93,-41.29,0,*7D
1494511315.0,26166,14.88,73094.8,7.09,-41.99,-41.61,0,*71
1494511316.29,26167,14.88,73088.8,7.07,-41.35,-40.97,0,*70
1494511317.51,26168,14.88,73088.5,7.05,-41.11,-40.85,0,*78
1494511318.77,26169,14.88,73086.8,7.05,-40.97,-40.41,0,*7E
1494511320.02,26170,14.88,73086.5,7.05,-40.97,-40.41,0,*76
1494511321.26,26171,14.88,73080.8,7.03,-41.11,-40.79,0,*75
1494511322.49,26172,14.88,73086.3,7.03,-41.99,-41.49,0,*74
1494511323.68,26173,14.88,73080.0,6.97,-42.63,-42.13,0,*73
1494511324.93,26174,14.88,73084.5,6.95,-41.93,-41.61,0,*7C
1494511326.19,26175,14.88,73084.3,6.95,-41.35,-40.91,0,*7F
1494511327.44,26176,14.88,73082.8,6.93,-40.97,-40.41,0,*7E
1494511328.69,26177,14.88,73086.8,6.93,-40.85,-40.41,0,*7C
1494511329.94,26178,14.88,73086.3,6.89,-40.85,-40.29,0,*76
1494511331.21,26179,14.88,73088.0,6.91,-39.97,-39.29,0,*7D
1494511332.47,26180,14.88,73086.5,6.91,-39.85,-39.23,0,*72
1494511333.72,26181,14.88,73088.0,6.91,-39.29,-38.73,0,*71
1494511334.92,26182,14.88,73088.8,6.89,-39.65,-38.97,0,*79
1494511336.18,26183,14.88,73094.0,6.91,-40.41,-39.85,0,*7B
1494511337.38,26184,14.88,73094.0,6.89,-41.11,-40.53,0,*74
1494511338.61,26185,14.88,73094.8,6.89,-39.71,-38.97,0,*7B
1494511339.81,26186,14.88,73090.0,6.89,-38.97,-38.35,0,*79
1494511341.04,26187,14.88,73092.5,6.89,-39.29,-38.55,0,*7A
1494511342.3,26188,14.88,73090.3,6.89,-37.93,-37.39,0,*7F
1494511343.55,26189,14.88,73094.8,6.91,-37.57,-36.91,0,*7C
1494511344.78,26190,14.88,73094.3,6.95,-36.55,-35.77,0,*78
1494511346.04,26191,14.88,73094.0,6.95,-36.85,-36.25,0,*70
1494511347.27,26192,14.88,73092.5,6.99,-35.71,-35.13,0,*71
1494511348.5,26193,14.88,73094.0,6.99,-36.67,-36.01,0,*74
1494511349.74,26194,14.88,73092.5,7.05,-36.73,-35.95,0,*7C
1494511350.95,26195,14.88,73094.3,7.05,-37.87,-37.15,0,*7D
1494511352.15,26196,14.88,73092.5,7.05,-36.43,-35.59,0,*7D
1494511353.41,26197,14.88,73090.5,7.07,-35.53,-34.83,0,*7A
1494511354.63,26198,14.88,73090.8,7.09,-35.07,-34.25,0,*76
1494511355.88,26199,14.88,73088.5,7.13,-35.07,-34.19,0,*73
1494511357.13,26200,14.88,73092.0,7.15,-34.89,-34.01,0,*78
1494511358.33,26201,14.88,73088.0,7.17,-34.89,-34.13,0,*78
1494511359.57,26202,14.88,73092.3,7.21,-35.65,-34.83,0,*74
1494511360.82,26203,14.88,73094.0,7.25,-38.67,-38.11,0,*79
1494511362.09,26204,14.88,73096.8,7.19,-38.29,-37.69,0,*7B
1494511363.34,26205,14.88,73094.5,7.21,-37.69,-36.61,0,*73
1494511364.59,26206,14.88,73092.8,7.21,-37.39,-36.79,0,*7C
1494511365.79,26207,14.88,73088.5,7.21,-38.35,-37.57,0,*73
1494511367.05,26208,14.88,73094.0,7.19,-37.87,-37.09,0,*7A
1494511368.31,26209,14.88,73092.0,7.21,-37.21,-36.61,0,*73
1494511369.57,26210,14.88,73092.0,7.21,-36.79,-35.95,0,*7F
1494511370.8,26211,14.88,73092.3,7.21,-37.75,-37.09,0,*74
1494511372.02,26212,14.88,73090.5,7.21,-38.23,-37.57,0,*70
1494511373.23,26213,14.88,73092.8,7.21,-37.45,-36.67,0,*7C
1494511374.43,26214,14.88,73090.8,7.25,-35.77,-34.89,0,*7E
1494511375.63,26215,14.88,73092.0,7.25,-37.03,-36.43,0,*7A
1494511376.86,26216,14.88,73090.3,7.25,-38.05,-37.51,0,*72
1494511378.11,26217,14.88,73094.0,7.27,-35.65,-34.77,0,*7D
1494511379.35,26218,14.88,73088.3,7.27,-35.13,-34.35,0,*75
1494511380.59,26219,14.88,73090.8,7.31,-35.41,-34.71,0,*74
1494511381.84,26220,14.88,73086.5,7.31,-35.01,-34.31,0,*7E
1494511383.12,26221,14.88,73088.0,7.35,-34.31,-33.49,0,*71
1494511384.34,26222,14.88,73090.3,7.37,-35.13,-34.53,0,*7D
1494511385.55,26223,14.88,73090.0,7.37,-34.71,-34.13,0,*7D
1494511386.77,26224,14.88,73090.3,7.41,-34.95,-34.25,0,*74
1494511388.03,26225,14.88,73096.0,7.47,-34.77,-34.01,0,*79
1494511389.25,26226,14.88,73098.0,7.43,-39.09,-38.73,0,*73
1494511390.45,26227,14.88,73094.0,7.41,-38.55,-37.87,0,*7C
1494511391.68,26228,14.88,73092.5,7.41,-37.87,-37.39,0,*76
1494511392.88,26229,14.88,73090.8,7.41,-37.03,-36.31,0,*72
1494511394.1,26230,14.88,73088.3,7.41,-37.63,-37.03,0,*7C
1494511395.3,26231,14.88,73088.5,7.41,-37.57,-37.03,0,*7A
1494511396.5,26232,14.88,73088.5,7.41,-37.03,-36.31,0,*78
1494511397.72,26233,14.88,73090.3,7.41,-37.39,-36.67,0,*73
1494511398.92,26234,14.88,73088.0,7.41,-37.75,-37.03,0,*7F
1494511400.17,26235,14.88,73088.0,7.41,-37.21,-36.49,0,*70
1494511401.42,26236,14.88,73090.8,7.41,-37.63,-36.91,0,*70
1494511402.7,26237,14.88,73090.3,7.39,-36.79,-35.95,0,*73
1494511403.95,26238,14.88,73092.0,7.39,-37.51,-36.73,0,*7C
1494511405.21,26239,14.88,73088.0,7.41,-37.21,-36.49,0,*7C
1494511406.43,26240,14.88,73088.3,7.41,-37.63,-37.03,0,*7B
1494511407.62,26241,14.88,73088.5,7.41,-38.05,-37.45,0,*77
1494511408.84,26242,14.88,73086.0,7.41,-38.43,-37.81,0,*7E
1494511410.09,26243,14.88,73080.5,7.39,-40.35,-39.79,0,*77
1494511411.33,26244,14.88,73086.8,7.37,-40.41,-39.91,0,*7B
1494511412.56,26245,14.88,73082.5,7.35,-39.35,-38.55,0,*7C
1494511413.8,26246,14.88,73088.8,7.35,-38.35,-37.69,0,*7E
1494511415.06,26247,14.88,73088.0,7.35,-39.23,-38.55,0,*79
1494511416.29,26248,14.88,73092.8,7.33,-38.05,-37.39,0,*70
1494511417.49,26249,14.88,73094.0,7.33,-39.35,-38.61,0,*71
1494511418.73,26250,14.88,73092.0,7.31,-40.79,-40.35,0,*73
1494511419.97,26251,14.88,73090.8,7.29,-41.23,-40.53,0,*75
1494511421.22,26252,14.88,73090.0,7.25,-39.41,-38.67,0,*79
1494511422.43,26253,14.88,73084.5,7.25,-39.53,-38.73,0,*7E
1494511423.65,26254,14.88,73090.0,7.25,-38.11,-37.33,0,*75
1494511424.88,26255,14.88,73086.8,7.25,-38.55,-37.93,0,*7E
1494511426.1,26256,14.88,73086.8,7.25,-38.91,-38.17,0,*76
1494511427.34,26257,14.88,73084.8,7.25,-36.97,-36.25,0,*70
1494511428.62,26258,14.88,73088.0,7.27,-36.61,-35.83,0,*7B
1494511429.86,26259,14.88,73082.5,7.27,-36.07,-35.23,0,*70
1494511431.12,26260,14.88,73080.0,7.29,-35.07,-34.31,0,*75
1494511432.35,26261,14.88,73076.3,7.29,-34.71,-33.77,0,*71
1494511433.55,26262,14.88,73076.8,7.33,-35.01,-34.25,0,*7F
1494511434.82,26263,14.88,73078.3,7.35,-35.41,-34.53,0,*7D
1494511436.03,26264,14.88,73086.0,7.37,-34.77,-33.95,0,*71
1494511437.3,26265,14.88,73082.8,7.39,-36.13,-35.53,0,*72
1494511438.58,26266,14.88,73084.3,7.39,-36.79,-36.13,0,*7A
1494511439.83,26267,14.88,73092.8,7.39,-36.19,-35.53,0,*7A
1494511441.05,26268,14.88,73088.8,7.41,-37.75,-37.09,0,*7C
1494511442.3,26269,14.88,73092.3,7.41,-38.79,-38.23,0,*79
1494511443.58,26270,14.88,73088.5,7.39,-39.59,-39.03,0,*7E
1494511444.81,26271,14.88,73088.0,7.37,-39.35,-38.67,0,*78
1494511446.09,26272,14.88,73086.5,7.35,-38.11,-37.51,0,*74
1494511447.32,26273,14.88,73088.8,7.35,-37.87,-37.15,0,*75
1494511448.58,26274,14.88,73092.5,7.35,-36.43,-35.83,0,*76
1494511449.81,26275,14.88,73094.5,7.35,-35.89,-35.13,0,*7B
1494511451.06,26276,14.88,73090.3,7.37,-36.37,-35.65,0,*7D
1494511452.31,26277,14.88,73090.8,7.39,-34.83,-34.13,0,*7F
1494511453.54,26278,14.88,73092.5,7.39,-35.01,-34.25,0,*7E
1494511454.76,26279,14.88,73094.5,7.41,-36.61,-36.07,0,*77
1494511455.98,26280,14.88,73094.0,7.41,-37.99,-37.27,0,*74
1494511457.22,26281,14.88,73086.3,7.41,-37.39,-36.61,0,*7C
1494511458.47,26282,14.88,73086.0,7.43,-37.27,-36.61,0,*72
1494511459.72,26283,14.88,73090.3,7.41,-37.21,-36.49,0,*7D
1494511460.92,26284,14.88,73090.0,7.41,-37.03,-36.31,0,*75
1494511462.2,26285,14.88,73086.5,7.43,-36.91,-36.25,0,*79
1494511463.44,26286,14.88,73084.8,7.41,-36.13,-35.35,0,*70
1494511464.69,26287,14.88,73082.3,7.43,-36.43,-35.53,0,*76
1494511465.93,26288,14.88,73082.3,7.47,-35.41,-34.59,0,*77
1494511467.17,26289,14.88,73076.5,7.47,-35.53,-34.71,0,*7F
1494511468.43,26290,14.88,73082.5,7.49,-34.95,-34.13,0,*76
1494511469.69,26291,14.88,73086.0,7.49,-34.35,-33.67,0,*79
1494511470.94,26292,14.88,73084.3,7.51,-36.61,-35.83,0,*7C
1494511472.17,26293,14.88,73080.3,7.51,-37.93,-37.33,0,*78
1494511473.36,26294,14.88,73080.0,7.51,-38.05,-37.27,0,*7A
1494511474.62,26295,14.88,73080.8,7.49,-36.61,-35.47,0,*7A
1494511475.87,26296,14.88,73080.0,7.49,-35.07,-34.41,0,*7D
1494511477.11,26297,14.88,73082.0,7.53,-34.13,-33.37,0,*75
1494511478.34,26298,14.88,73082.8,7.53,-34.25,-33.37,0,*7F
1494511479.57,26299,14.88,73078.8,7.55,-34.25,-33.43,0,*7B
1494511480.83,26300,14.88,73082.0,7.57,-34.77,-34.01,0,*7E
1494511482.04,26301,14.88,73084.0,7.59,-34.47,-33.95,0,*78
1494511483.27,26302,14.88,73086.0,7.61,-34.13,-33.37,0,*79
1494511484.53,26303,14.88,73084.0,7.61,-34.65,-34.13,0,*78
1494511485.74,26304,14.88,73084.3,7.63,-36.55,-35.89,0,*7E
1494511487.0,26305,14.88,73084.5,7.61,-36.55,-35.83,0,*77
1494511488.23,26306,14.88,73084.5,7.63,-36.37,-35.77,0,*79
1494511489.45,26307,14.88,73086.8,7.63,-35.41,-34.59,0,*77
1494511490.66,26308,14.88,73088.0,7.63,-35.13,-34.31,0,*71
1494511491.91,26309,14.88,73086.5,7.65,-36.07,-35.41,0,*76
1494511493.14,26310,14.88,73086.3,7.63,-36.31,-35.53,0,*7E
1494511494.37,26311,14.88,73084.8,7.63,-34.47,-33.73,0,*78
1494511495.62,26312,14.88,73088.5,7.65,-34.31,-33.55,0,*78
1494511496.84,26313,14.88,73086.8,7.67,-33.89,-33.15,0,*7B
1494511498.09,26314,14.88,73088.0,7.71,-35.07,-34.35,0,*7E
1494511499.31,26315,14.88,73084.0,7.75,-34.83,-33.95,0,*7B
1494511500.55,26316,14.88,73088.3,7.73,-33.95,-33.09,0,*7B
1494511501.75,26317,14.88,73086.5,7.75,-34.77,-33.95,0,*72
1494511502.94,26318,14.88,73084.0,7.75,-35.17,-34.59,0,*7D
1494511504.14,26319,14.88,73086.5,7.75,-34.25,-33.55,0,*77
1494511505.39,26320,14.88,73084.0,7.79,-34.19,-33.27,0,*7B
1494511506.65,26321,14.88,73084.0,7.79,-34.01,-33.31,0,*74
1494511507.87,26322,14.88,73086.5,7.81,-34.89,-34.35,0,*73
1494511509.12,26323,14.88,73082.8,7.81,-35.95,-35.23,0,*78
1494511510.35,26324,14.88,73090.3,7.81,-36.01,-35.23,0,*71
1494511511.59,26325,14.88,73090.3,7.81,-35.41,-34.83,0,*7C
1494511512.83,26326,14.88,73090.5,7.81,-33.95,-33.27,0,*79
1494511514.08,26327,14.88,73088.3,7.83,-34.53,-33.83,0,*79
1494511515.32,26328,14.88,73088.3,7.85,-35.07,-34.47,0,*7F
1494511516.54,26329,14.88,73088.3,7.87,-34.89,-34.13,0,*7A
1494511517.78,26330,14.88,73094.0,7.87,-34.07,-33.55,0,*71
1494511518.98,26331,14.88,73090.8,7.89,-34.41,-33.83,0,*77
1494511520.21,26332,14.88,73092.8,7.89,-33.89,-33.15,0,*78
1494511521.44,26333,14.88,73096.0,7.93,-33.77,-32.91,0,*7E
1494511522.69,26334,14.88,73088.3,7.93,-34.19,-33.49,0,*72
1494511523.98,26335,14.88,73092.0,7.95,-34.01,-33.43,0,*76
1494511525.27,26336,14.88,73092.3,7.95,-33.49,-32.75,0,*7A
1494511526.5,26337,14.88,73092.0,7.97,-34.25,-33.77,0,*77
1494511527.73,26338,14.88,73094.5,7.97,-35.77,-35.07,0,*7F
1494511528.93,26339,14.88,73094.0,8.01,-35.77,-35.01,0,*78
1494511530.17,26340,14.88,73098.5,7.99,-35.01,-34.47,0,*7A
1494511531.39,26341,14.88,73098.0,8.01,-35.53,-35.01,0,*71
1494511532.61,26342,14.88,73098.0,7.99,-35.01,-34.41,0,*7E
1494511533.84,26343,14.88,73098.8,8.01,-34.35,-33.67,0,*74
1494511535.07,26344,14.88,73098.0,8.01,-34.01,-33.37,0,*71
1494511536.31,26345,14.88,73098.3,8.01,-34.01,-33.37,0,*70
1494511537.54,26346,14.88,73098.3,8.03,-33.83,-33.21,0,*7B
1494511538.76,26347,14.88,73100.3,8.05,-33.09,-32.35,0,*7A
1494511540.03,26348,14.88,73098.0,8.07,-33.27,-32.63,0,*78
1494511541.26,26349,14.88,73098.0,8.09,-34.35,-33.67,0,*76
1494511542.48,26350,14.88,73096.3,8.11,-35.17,-34.59,0,*7C
1494511543.76,26351,14.88,73096.5,8.11,-34.65,-34.01,0,*74
1494511544.99,26352,14.88,73098.8,8.11,-35.29,-34.59,0,*73
1494511546.22,26353,14.88,73094.8,8.11,-34.07,-33.37,0,*70
1494511547.45,26354,14.88,73102.0,8.15,-33.43,-32.69,0,*7E
1494511548.67,26355,14.88,73102.3,8.15,-33.95,-33.27,0,*7F
1494511549.9,26356,14.94,73102.5,8.19,-34.25,-33.43,0,*7E
1494511551.12,26357,14.88,73096.5,8.21,-34.25,-33.55,0,*73
1494511552.34,26358,14.88,73098.5,8.19,-35.47,-34.83,0,*7E
1494511553.6,26359,14.88,73100.3,8.21,-34.31,-33.67,0,*79
1494511554.84,26360,14.88,73098.5,8.21,-34.19,-33.55,0,*78
1494511556.07,26361,14.88,73098.5,8.23,-34.77,-34.01,0,*75
1494511557.32,26362,14.88,73096.8,8.23,-34.83,-34.01,0,*7D
1494511558.54,26363,14.88,73096.0,8.23,-35.35,-34.59,0,*7D
1494511559.74,26364,14.88,73098.5,8.23,-35.29,-34.47,0,*78
1494511560.97,26365,14.88,73098.8,8.27,-35.83,-35.29,0,*74
1494511562.22,26366,14.88,73100.3,8.25,-36.25,-35.71,0,*77
1494511563.44,26367,14.88,73100.3,8.23,-35.89,-35.41,0,*76
1494511564.69,26368,14.88,73100.0,8.23,-37.21,-36.91,0,*77
1494511565.97,26369,14.88,73096.8,8.21,-37.99,-37.63,0,*7B
1494511567.19,26370,14.88,73094.8,8.21,-38.61,-38.17,0,*77
1494511568.42,26371,14.88,73092.3,8.19,-39.03,-38.43,0,*79
1494511569.68,26372,14.94,73094.5,8.17,-38.61,-37.93,0,*73
1494511570.95,26373,14.88,73092.5,8.11,-39.41,-38.91,0,*7A
1494511572.18,26374,14.88,73094.8,8.09,-38.55,-37.81,0,*7E
1494511573.46,26375,14.88,73092.0,8.07,-38.23,-37.51,0,*7D
1494511574.68,26376,14.88,73092.8,8.07,-38.85,-38.05,0,*7C
1494511575.9,26377,14.88,73088.3,8.05,-39.23,-38.73,0,*73
1494511577.15,26378,14.88,73088.5,8.03,-39.85,-39.23,0,*72
1494511578.4,26379,14.88,73090.8,7.99,-38.79,-38.17,0,*7B
1494511579.67,26380,14.88,73088.8,7.99,-38.29,-37.69,0,*7E
1494511580.96,26381,14.88,73086.8,7.99,-38.29,-37.63,0,*75
1494511582.22,26382,14.88,73084.3,7.95,-36.97,-36.25,0,*72
1494511583.47,26383,14.94,73086.3,7.97,-37.51,-36.91,0,*75
1494511584.75,26384,14.88,73086.8,7.99,-38.29,-37.81,0,*7C
1494511586.0,26385,14.88,73090.3,7.95,-38.55,-37.93,0,*79
1494511587.26,26386,14.88,73086.8,7.93,-38.11,-37.51,0,*72
1494511588.49,26387,14.94,73086.3,7.89,-37.75,-37.09,0,*78
1494511589.71,26388,14.88,73084.8,7.93,-37.51,-36.97,0,*7C
1494511590.95,26389,14.94,73086.5,7.93,-37.09,-36.55,0,*7E
1494511592.21,26390,14.94,73086.8,7.93,-36.25,-35.41,0,*7F
1494511593.42,26391,14.94,73090.0,7.93,-35.89,-35.47,0,*7D
1494511594.65,26392,14.94,73088.3,7.89,-37.39,-36.85,0,*71
1494511595.88,26393,14.94,73094.3,7.93,-37.93,-37.33,0,*77
1494511597.13,26394,14.88,73092.3,7.93,-37.39,-36.91,0,*79
1494511598.36,26395,14.88,73092.8,7.89,-38.17,-37.99,0,*79
1494511599.59,26396,14.88,73094.0,7.89,-37.99,-37.57,0,*71
1494511600.82,26397,14.88,73092.5,7.87,-37.33,-36.85,0,*70
1494511602.03,26398,14.88,73088.8,7.85,-37.27,-36.73,0,*71
1494511603.26,26399,14.94,73094.0,7.87,-36.31,-35.71,0,*75
1494511604.5,26400,14.88,73088.5,7.85,-36.67,-35.95,0,*79
1494511605.75,26401,14.88,73092.3,7.87,-35.89,-35.23,0,*74
1494511606.99,26402,14.94,73092.3,7.87,-36.19,-35.77,0,*7C
1494511608.2,26403,14.88,73090.3,7.93,-35.29,-34.77,0,*79
1494511609.43,26404,14.88,73090.3,7.93,-35.07,-34.47,0,*71
1494511610.66,26405,14.94,73092.0,7.93,-35.89,-35.41,0,*71
1494511611.89,26406,14.88,73090.3,7.93,-37.51,-37.03,0,*71
1494511613.12,26407,14.94,73092.0,7.93,-35.59,-34.95,0,*76
1494511614.35,26408,14.88,73090.0,7.93,-36.37,-35.59,0,*73
1494511615.58,26409,14.88,73088.8,7.95,-37.15,-36.43,0,*7D
1494511616.84,26410,14.88,73090.5,7.95,-36.91,-36.43,0,*78
1494511618.05,26411,14.94,73094.3,7.97,-35.89,-35.29,0,*7E
1494511619.31,26412,14.88,73092.3,7.95,-36.97,-36.25,0,*7C
1494511620.54,26413,14.88,73098.8,7.95,-36.07,-35.47,0,*73
1494511621.75,26414,14.94,73098.5,7.97,-36.97,-36.55,0,*7F
1494511623.01,26415,14.88,73092.0,7.95,-38.23,-37.75,0,*7E
1494511624.24,26416,14.88,73084.3,7.93,-38.49,-38.05,0,*7F
1494511625.49,26417,14.94,73092.3,7.89,-37.09,-36.49,0,*78
1494511626.72,26418,14.88,73090.0,7.89,-37.27,-36.61,0,*71
1494511627.95,26419,14.88,73084.3,7.89,-39.47,-38.79,0,*7F
1494511629.2,26420,14.94,73094.8,7.85,-40.21,-40.21,0,*75
1494511630.46,26421,14.88,73092.8,7.85,-40.41,-39.97,0,*71
1494511631.68,26422,14.88,73090.8,7.83,-39.91,-39.47,0,*7A
1494511632.91,26423,14.88,73090.5,7.81,-39.85,-39.41,0,*7A
1494511634.13,26424,14.94,73092.5,7.77,-40.53,-40.03,0,*79
1494511635.41,26425,14.94,73092.3,7.77,-40.97,-40.59,0,*7F
1494511636.64,26426,14.94,73084.5,7.73,-39.91,-39.09,0,*7B
1494511637.86,26427,14.88,73084.0,7.71,-41.93,-41.73,0,*77
1494511639.06,26428,14.88,73084.3,7.63,-42.37,-42.13,0,*73
1494511640.28,26429,14.94,73082.8,7.63,-42.31,-41.99,0,*75
1494511641.54,26430,14.94,73082.3,7.59,-41.23,-40.97,0,*7B
1494511642.82,26431,14.94,73090.0,7.57,-41.93,-41.23,0,*71
1494511644.05,26432,14.88,73092.5,7.51,-41.99,-41.55,0,*7F
1494511645.28,26433,14.94,73098.0,7.51,-39.29,-38.85,0,*79
1494511646.51,26434,14.94,73094.5,7.51,-38.29,-37.87,0,*72
1494511647.77,26435,14.88,73094.3,7.49,-39.47,-38.91,0,*7B
1494511649.02,26436,14.88,73094.8,7.47,-39.85,-39.29,0,*7A
1494511650.26,26437,14.88,73092.8,7.47,-38.55,-37.93,0,*78
1494511651.51,26438,14.94,73092.0,7.47,-39.15,-38.73,0,*73
1494511652.75,26439,14.94,73094.5,7.47,-39.29,-38.73,0,*7D
1494511654.03,26440,14.94,73088.3,7.47,-37.21,-36.61,0,*78
1494511655.25,26441,14.94,73090.5,7.47,-37.57,-36.97,0,*71
1494511656.49,26442,14.88,73094.8,7.47,-36.97,-36.55,0,*71
1494511657.74,26443,14.94,73094.8,7.47,-37.03,-36.61,0,*7B
1494511658.97,26444,14.94,73088.0,7.49,-37.75,-37.15,0,*71
1494511660.2,26445,14.94,73094.0,7.49,-37.03,-36.55,0,*74
1494511661.45,26446,14.94,73092.8,7.47,-38.67,-38.17,0,*7C
1494511662.69,26447,14.94,73094.8,7.47,-37.15,-36.61,0,*78
1494511663.96,26448,14.94,73088.5,7.47,-35.65,-35.07,0,*71
1494511665.19,26449,14.94,73090.8,7.51,-37.63,-36.97,0,*79
1494511666.44,26450,14.94,73088.3,7.51,-38.29,-37.69,0,*70
1494511667.67,26451,14.94,73092.5,7.49,-37.33,-36.67,0,*73
1494511668.9,26452,14.94,73098.0,7.51,-36.91,-36.31,0,*73
1494511670.1,26453,14.94,73092.3,7.51,-37.87,-37.33,0,*77
1494511671.35,26454,14.88,73094.5,7.53,-37.39,-36.85,0,*7B
1494511672.6,26455,14.94,73098.0,7.51,-39.41,-39.03,0,*78
1494511673.87,26456,14.94,73092.5,7.49,-39.53,-39.03,0,*71
1494511675.15,26457,14.94,73092.3,7.47,-38.29,-37.81,0,*76
1494511676.4,26458,14.94,73094.5,7.47,-36.85,-36.37,0,*7D
1494511677.63,26459,14.94,73088.8,7.47,-37.33,-36.67,0,*75
1494511678.86,26460,14.94,73094.8,7.49,-38.73,-38.35,0,*73
1494511680.08,26461,14.94,73096.8,7.47,-39.09,-38.73,0,*72
1494511681.35,26462,14.94,73100.5,7.47,-37.99,-37.69,0,*72
1494511682.57,26463,14.88,73098.8,7.43,-38.97,-38.43,0,*71
1494511683.77,26464,14.94,73092.8,7.41,-37.27,-36.73,0,*7D
1494511685.02,26465,14.94,73088.0,7.43,-35.95,-35.17,0,*74
1494511686.26,26466,14.94,73090.0,7.47,-35.07,-34.25,0,*78
1494511687.52,26467,14.94,73092.3,7.49,-34.25,-33.49,0,*7B
1494511688.75,26468,14.94,73088.0,7.53,-35.29,-34.59,0,*74
1494511689.98,26469,14.94,73090.3,7.53,-36.43,-35.71,0,*71
1494511691.27,26470,14.94,73086.0,7.53,-36.91,-36.25,0,*74
1494511692.53,26471,14.94,73082.3,7.53,-35.95,-35.29,0,*7D
1494511693.79,26472,14.94,73078.8,7.55,-35.95,-35.41,0,*76
1494511695.0,26473,14.94,73076.3,7.55,-35.71,-35.13,0,*7A
1494511696.24,26474,14.94,73076.5,7.57,-35.35,-34.71,0,*7A
1494511697.5,26475,14.94,73076.3,7.57,-36.25,-36.01,0,*7C
1494511698.73,26476,14.94,73082.3,7.57,-36.67,-36.07,0,*7F
1494511699.98,26477,14.94,73086.5,7.59,-35.07,-34.35,0,*76
1494511701.18,26478,14.94,73088.3,7.59,-35.77,-35.17,0,*7F
1494511702.39,26479,14.94,73084.5,7.59,-35.59,-34.83,0,*7E